Theta_e
320 320 319 320 320 319 319 319 319 318 317 315 314 314 313 312 312 311 312 312 312 313 313 314 314 314 313 313 312 311 311 312 312 312 311 311 310 309 309 308 308 307 307 307 307 306 306 305 302 298 295 293 295 299 301 301 302 302 302 302 303 304 304 304 305 306 306 306 307 307 308 308 308 308 309 309 309 309 308 308 308 308 307 305 304
320 320 320 320 320 320 320 319 319 318 317 315 314 314 313 312 312 312 312 313 313 313 314 314 314 314 313 311 310 310 311 311 311 311 310 310 309 308 308 307 307 306 306 306 305 303 301 298 295 293 292 292 295 299 300 300 300 299 298 298 299 301 301 301 302 303 304 305 306 307 307 308 308 308 308 308 308 309 309 309 308 308 307 306 304
321 320 321 320 320 320 320 319 318 318 317 315 314 315 313 312 312 313 314 313 314 314 314 314 314 313 312 310 309 309 310 310 310 310 309 309 308 307 306 306 305 305 304 302 299 296 293 292 291 291 291 292 293 295 296 296 296 295 295 294 295 297 298 298 299 299 300 301 303 305 306 307 308 308 308 308 308 308 308 308 308 308 307 306 304
321 320 320 320 320 319 320 319 318 318 317 315 314 314 313 313 313 314 314 314 314 314 314 314 313 312 310 308 307 308 309 309 309 309 308 307 306 306 305 304 304 302 298 295 293 291 291 291 291 291 291 291 291 292 292 292 292 292 293 293 294 295 295 296 296 297 297 299 300 301 303 305 306 307 308 308 308 308 308 308 308 308 307 306 305
320 320 321 320 320 319 319 319 318 317 316 315 313 313 313 313 314 314 314 314 314 314 313 312 311 309 307 306 307 308 308 308 308 307 306 306 305 304 304 302 300 296 293 291 291 291 291 292 292 292 292 292 292 292 293 293 293 293 294 294 294 294 294 294 295 295 296 296 298 299 300 302 304 306 307 307 308 308 308 308 308 308 307 307 305
320 321 320 320 320 319 318 318 318 317 316 315 313 314 314 314 314 314 314 314 313 313 311 310 308 306 305 306 307 307 307 306 306 306 305 304 304 303 301 298 294 292 291 291 291 292 292 292 292 293 293 292 292 293 294 294 294 294 294 294 294 294 294 294 294 294 295 295 296 297 297 298 301 303 305 306 307 307 308 308 308 308 307 307 306
320 320 320 320 319 317 317 317 317 317 315 314 314 314 314 314 314 314 313 313 312 310 308 306 304 304 304 306 306 306 305 305 305 304 303 302 302 300 296 293 291 291 291 291 292 292 292 292 292 293 292 292 292 293 293 293 293 293 294 294 294 294 294 293 293 293 294 294 295 295 295 295 297 300 303 305 306 307 307 307 308 308 307 307 306
320 320 320 319 318 317 317 318 318 317 315 314 314 314 314 314 314 313 312 311 309 307 305 303 303 304 305 305 305 304 304 304 303 302 301 300 298 295 292 291 291 291 291 292 292 292 292 293 293 293 292 292 292 292 293 292 292 293 293 294 293 293 293 293 293 293 293 293 293 293 294 294 295 296 300 304 305 305 306 306 307 307 307 307 306
320 320 319 319 318 317 317 316 317 316 314 314 314 314 314 314 313 312 310 308 306 304 303 303 303 304 304 304 304 303 303 302 301 300 299 297 293 291 290 291 291 291 291 292 292 292 293 293 293 293 293 292 292 292 292 292 292 292 292 292 292 292 292 292 292 292 292 292 292 292 292 292 293 293 296 300 302 304 305 305 306 307 307 307 306
320 319 318 318 317 315 314 314 315 315 314 314 314 314 314 313 312 310 307 305 303 303 303 303 304 304 304 303 302 301 301 300 299 297 295 292 290 290 291 291 291 291 291 292 292 293 293 293 293 293 292 292 292 292 291 291 292 292 291 291 291 291 291 291 291 292 292 292 292 291 291 291 291 291 292 295 298 301 302 304 305 305 306 306 306
318 317 316 316 315 314 313 314 314 314 314 314 313 313 312 311 309 307 305 303 302 302 303 304 304 303 303 302 300 299 299 298 296 293 291 290 290 290 291 290 291 291 291 292 293 293 293 293 293 292 291 291 292 292 292 292 292 292 292 291 290 290 290 291 291 291 291 291 291 291 291 291 291 291 291 292 294 296 298 301 304 304 305 305 305
316 315 315 314 314 314 314 314 314 314 314 313 312 312 310 308 306 304 303 301 302 302 303 303 303 302 301 299 298 297 296 295 292 290 289 290 290 290 290 290 291 291 291 292 292 293 293 292 292 290 290 291 292 292 292 292 292 292 292 291 290 290 290 290 290 291 291 291 291 291 291 291 292 291 291 291 292 293 296 299 302 303 304 305 305
315 314 314 313 313 314 314 314 314 314 313 312 311 309 307 305 304 303 301 301 301 302 302 302 301 300 298 297 296 295 293 291 289 289 290 290 290 290 290 290 290 290 291 292 292 292 292 291 290 289 290 291 291 291 291 291 292 292 291 291 291 290 290 290 290 290 291 291 291 291 292 292 292 292 292 292 292 293 294 297 300 302 303 304 304
314 314 314 314 314 314 314 314 314 313 312 310 308 306 305 304 303 301 300 301 302 301 300 300 299 297 296 295 294 293 290 289 289 289 290 290 290 290 290 290 290 290 290 291 291 291 291 290 289 289 289 290 290 291 291 291 291 292 292 292 292 291 291 291 291 291 291 291 291 292 293 293 293 292 292 292 292 293 295 296 298 300 302 302 304
314 314 314 314 314 314 314 314 313 313 311 309 307 305 303 303 302 300 299 300 300 298 297 296 295 294 293 293 292 290 289 289 289 289 290 290 290 290 290 290 290 290 290 290 290 290 289 289 289 288 288 289 290 291 291 291 291 291 292 292 292 292 291 291 291 291 291 292 292 292 293 293 293 293 293 292 292 293 295 296 296 299 301 302 303
314 314 314 314 314 314 314 313 313 312 310 307 306 303 302 302 303 301 298 297 296 294 294 294 293 292 291 291 290 289 288 289 289 289 290 290 290 290 290 290 290 290 290 290 290 289 289 288 288 288 287 289 291 291 291 291 291 291 291 291 292 292 292 292 292 292 292 293 293 293 294 294 294 293 293 292 292 293 294 295 295 297 300 302 302
314 315 315 315 314 314 314 313 312 310 308 306 304 302 302 303 303 302 297 294 292 292 293 293 291 290 290 289 289 288 288 289 289 289 290 290 290 290 290 290 290 289 289 289 289 289 288 288 288 287 287 288 290 291 291 292 291 291 291 291 291 292 293 293 294 294 294 294 294 294 294 294 293 293 293 293 292 292 294 295 295 296 299 302 302
315 315 315 314 314 313 313 312 310 308 306 304 303 302 302 303 304 301 296 292 291 292 292 291 290 289 289 289 288 288 288 289 289 289 290 290 290 290 290 290 290 289 289 289 289 288 288 287 287 286 286 288 290 290 291 291 291 291 290 290 291 292 293 295 295 295 295 295 294 294 294 293 293 293 293 292 292 291 292 294 295 296 299 302 302
315 315 314 314 313 312 311 309 307 305 304 303 302 302 303 303 303 299 294 291 291 291 291 290 289 289 289 288 288 288 288 288 289 289 289 290 290 290 289 289 289 289 289 289 289 289 288 287 287 287 287 288 289 290 290 290 290 291 291 291 290 291 293 295 295 295 295 295 294 294 294 294 293 293 292 291 291 290 292 295 298 298 299 301 302
315 314 313 313 312 310 308 306 304 304 304 303 302 303 303 303 301 297 292 291 291 290 290 289 289 289 289 288 288 288 288 288 288 289 289 289 289 289 289 289 289 288 288 288 289 289 288 287 287 287 288 288 289 290 290 290 290 291 292 291 290 291 293 294 294 294 295 295 295 295 295 295 294 294 294 294 294 294 296 298 300 300 299 301 302
314 313 313 312 310 308 306 304 304 304 303 302 302 303 302 302 299 295 291 291 290 290 290 289 288 289 288 288 287 287 288 288 288 288 289 289 289 289 289 288 288 288 288 288 288 289 288 287 287 287 288 289 290 290 290 290 290 291 292 291 290 292 293 294 294 294 295 295 295 295 296 296 296 296 297 297 297 298 300 300 300 300 300 301 302
313 312 311 309 307 305 304 304 303 303 303 303 302 302 301 300 298 293 291 291 290 290 290 289 288 288 288 288 287 287 287 288 288 288 289 289 289 289 288 288 287 287 288 288 288 288 288 287 287 287 288 290 290 290 290 290 290 291 292 292 293 293 294 294 294 294 294 294 294 295 296 296 296 297 297 298 298 299 300 300 300 301 301 301 301
312 311 308 306 305 304 304 304 303 303 302 302 302 301 300 299 296 292 291 290 290 290 289 289 288 288 288 287 287 287 287 288 288 288 288 288 288 288 288 287 287 287 287 287 287 287 288 287 287 287 288 290 290 290 290 290 290 291 293 293 294 294 294 295 295 294 294 294 294 295 295 295 295 296 297 298 298 299 299 300 300 301 301 301 301
311 309 306 304 304 303 304 304 303 302 302 302 301 300 299 298 295 291 290 290 290 289 289 289 289 288 288 287 287 286 287 288 288 288 288 288 287 287 287 287 287 287 287 286 286 287 287 288 287 287 288 289 290 290 291 291 291 291 292 292 293 294 294 294 294 293 294 294 294 293 294 294 294 295 296 297 298 299 299 300 300 300 301 301 301
310 307 305 304 303 303 304 304 303 302 302 301 300 299 298 296 294 291 290 290 290 289 289 288 288 288 287 287 287 286 287 287 287 287 287 287 287 287 287 287 287 286 286 286 286 286 287 287 288 288 288 288 288 289 290 290 291 291 291 291 292 292 293 293 293 293 293 292 292 292 292 293 293 293 295 297 299 299 299 300 300 300 301 301 301
307 305 304 304 303 303 304 304 302 302 301 300 299 298 296 295 293 291 290 290 289 289 288 288 288 287 287 287 287 286 286 287 287 287 286 286 286 286 286 286 286 286 286 286 286 286 286 287 287 288 288 288 287 287 287 288 289 290 290 290 291 291 291 291 291 292 291 291 291 291 292 293 293 294 295 297 298 298 299 299 300 300 301 301 301
305 304 304 303 302 303 303 303 302 301 300 299 298 296 295 294 293 291 290 290 290 289 288 288 287 287 287 287 286 286 286 286 286 286 286 285 285 285 285 285 285 285 285 285 285 286 286 286 286 287 288 288 288 287 286 286 287 288 289 290 290 290 290 290 290 291 291 290 291 292 292 293 294 294 295 295 296 296 297 298 299 300 300 301 301
304 304 304 303 302 302 303 303 302 301 299 298 296 295 295 294 292 291 291 290 290 290 289 288 288 287 287 287 286 286 286 285 285 284 284 284 284 283 284 284 284 285 285 285 285 286 286 286 286 286 286 287 288 288 287 286 285 285 286 288 289 290 290 290 290 290 290 290 291 292 292 293 293 293 294 294 295 295 296 296 297 298 299 300 300
304 304 303 302 301 302 302 302 302 301 299 297 295 295 295 293 292 292 291 290 290 290 290 289 288 287 286 287 286 286 285 285 285 284 284 284 283 283 283 283 283 284 284 284 285 285 285 286 286 286 285 285 285 286 286 286 285 284 284 285 287 289 289 289 289 289 290 290 290 291 291 291 292 292 293 293 293 294 294 295 296 296 297 298 298
304 303 302 301 301 301 302 301 301 301 298 295 294 294 294 293 292 292 291 290 290 290 290 289 288 287 286 286 286 286 286 285 285 284 284 284 283 283 283 283 283 283 284 284 284 284 285 285 285 285 284 283 283 283 284 285 285 284 283 283 285 287 288 289 288 288 289 289 289 290 290 290 290 291 291 291 291 292 293 293 294 295 295 296 296
304 303 302 302 302 302 301 300 300 299 296 294 294 294 293 292 291 292 292 291 290 290 290 290 289 288 287 286 286 286 286 285 285 284 284 284 284 283 283 284 284 284 284 284 284 283 283 283 283 283 283 282 282 281 281 283 284 284 283 283 284 286 287 288 287 288 288 288 288 289 289 290 290 290 290 291 291 291 292 292 292 293 294 295 295
304 304 303 302 301 301 301 300 299 297 295 293 293 293 292 291 291 291 292 291 290 290 291 290 289 289 288 286 286 286 286 286 285 284 284 284 284 284 284 284 284 284 284 284 283 283 283 282 282 282 282 281 281 280 280 281 282 283 283 283 283 284 286 286 286 287 287 287 287 287 288 289 289 289 290 290 291 291 291 292 292 292 292 293 294
304 304 303 302 301 300 300 299 298 296 293 292 292 292 291 290 290 291 291 291 290 290 290 290 289 289 288 286 286 286 286 286 285 285 284 284 284 284 284 284 284 284 284 284 283 283 282 282 282 281 281 280 280 280 280 280 281 282 283 283 282 283 284 285 286 287 288 288 287 287 287 288 288 289 290 290 290 290 291 291 291 292 292 292 293
305 304 303 301 300 299 298 298 297 294 292 291 292 291 290 290 290 290 290 291 290 290 290 290 289 289 288 287 286 286 286 286 285 284 284 284 284 285 284 284 284 284 284 284 283 282 282 282 282 281 280 280 280 280 280 280 280 281 282 283 283 283 283 285 286 286 287 288 288 288 287 287 288 288 289 290 289 290 290 291 291 291 291 292 292
304 304 302 301 299 297 297 296 295 293 291 291 291 290 290 290 290 290 290 290 290 289 290 290 289 289 288 286 285 286 286 286 285 285 284 285 285 285 285 285 285 284 284 283 283 282 282 282 282 281 280 280 280 280 280 280 280 280 281 282 284 283 283 284 285 285 286 286 287 288 288 288 288 288 289 289 289 289 289 290 290 290 291 291 292
304 304 303 301 298 296 295 294 293 291 291 291 291 290 290 290 290 290 290 290 289 289 290 290 289 289 288 287 285 285 286 286 285 285 285 285 285 285 285 285 285 284 284 283 283 282 282 282 282 281 280 280 280 280 280 280 280 280 280 281 283 284 283 283 283 284 285 285 286 287 288 288 289 289 289 289 289 288 288 289 290 290 290 291 291
304 304 303 301 299 296 294 293 292 291 291 291 291 290 289 289 290 290 290 290 289 289 289 289 289 288 288 287 286 285 286 286 285 285 285 285 285 285 285 285 284 284 283 283 283 283 282 282 282 281 280 280 280 280 280 280 280 280 280 280 281 283 283 283 283 283 284 284 285 286 286 287 287 288 289 289 289 289 288 288 289 290 290 291 292
304 304 303 302 300 297 295 293 292 291 291 291 291 290 289 289 289 290 290 290 289 288 288 288 288 288 287 287 286 286 286 286 286 285 285 285 285 285 285 284 284 284 283 283 283 283 283 282 282 281 281 281 280 281 280 280 280 280 280 280 281 281 283 284 284 284 284 284 284 284 285 285 285 286 287 288 288 288 288 288 288 289 290 290 291
305 304 303 302 301 298 295 293 292 292 291 291 291 290 290 289 289 289 289 289 288 288 288 288 288 287 287 287 286 286 286 286 286 286 285 285 285 285 285 284 284 284 283 283 283 283 283 283 282 282 281 281 281 281 281 281 280 280 280 281 281 281 281 283 284 284 284 284 283 283 284 284 284 285 287 287 288 287 287 287 288 288 289 290 291
305 304 303 303 301 298 295 294 293 292 291 291 291 290 290 289 289 289 289 288 288 288 288 288 287 288 287 287 286 286 286 286 286 286 285 285 285 285 285 284 284 284 284 283 283 283 283 283 283 282 282 281 281 282 282 281 281 280 280 280 281 281 281 281 282 284 284 284 284 283 284 284 284 285 286 287 287 287 287 287 288 288 289 289 290
304 304 303 303 301 299 296 294 293 292 291 291 290 290 290 290 289 289 289 289 288 288 288 288 288 288 287 287 286 286 286 286 286 285 285 285 285 285 285 284 284 284 284 283 283 283 283 283 283 282 282 282 282 282 282 282 281 281 281 280 281 281 281 281 281 282 283 284 284 283 283 284 285 285 286 286 287 287 287 288 288 289 289 289 290
305 304 304 303 302 300 297 295 293 292 292 291 290 290 290 290 289 289 289 289 289 288 288 288 288 288 287 287 286 286 286 286 286 285 285 285 285 285 285 284 284 284 284 283 283 283 283 283 283 282 282 282 282 282 282 282 282 281 281 281 281 281 281 281 281 281 282 283 284 283 283 284 285 285 285 286 286 287 287 288 288 289 289 289 290
305 304 304 303 302 300 298 296 294 293 292 291 290 290 290 290 289 289 289 289 289 288 288 288 288 288 287 287 287 286 286 286 286 285 285 285 285 285 285 285 284 284 284 283 283 283 283 283 283 282 282 282 281 281 281 281 282 281 281 281 281 281 281 281 281 281 281 282 284 284 283 284 285 285 285 285 286 286 287 288 288 289 289 289 290
305 304 304 303 302 301 299 297 295 293 292 291 290 290 290 290 290 290 289 289 288 288 288 288 288 288 287 287 287 286 286 286 286 285 285 285 285 285 285 285 284 284 284 284 283 283 283 283 283 282 282 282 282 281 281 281 281 281 281 281 281 281 281 281 281 281 281 281 282 283 283 284 284 285 285 285 285 286 287 287 288 289 289 289 290
305 305 305 304 303 302 301 299 297 295 293 292 291 291 290 290 290 290 289 289 288 288 288 288 288 288 288 287 287 286 286 286 286 286 285 285 285 285 285 285 284 284 284 284 284 283 283 283 283 283 282 282 282 282 281 281 282 281 281 281 281 281 281 280 280 280 280 280 281 282 283 284 284 285 285 285 285 286 286 287 287 288 289 289 290
305 305 305 304 304 303 302 301 299 297 295 294 292 291 291 290 290 290 290 289 289 288 288 288 288 288 288 287 287 286 286 286 286 286 285 285 285 285 285 285 284 284 284 284 284 284 283 283 283 283 283 282 282 282 282 282 282 282 281 281 281 281 281 280 280 280 280 280 280 281 282 283 284 284 284 285 285 285 286 286 287 288 288 289 290
305 305 304 304 304 304 303 302 300 299 297 295 293 292 291 291 291 290 290 289 289 288 288 288 288 288 288 287 287 287 286 286 286 286 286 285 285 285 285 285 284 284 284 284 284 284 283 283 283 283 283 282 282 282 282 282 282 282 282 281 281 281 281 280 280 280 280 280 280 280 281 282 283 284 284 284 284 285 285 286 286 287 288 289 289
305 305 304 304 304 304 304 303 301 300 298 296 294 293 292 291 291 290 290 289 289 289 288 288 288 288 288 287 287 287 286 286 286 286 286 285 285 285 285 285 285 285 284 284 284 284 283 283 283 283 283 283 282 282 282 282 282 282 282 282 281 281 280 280 280 280 280 280 280 280 280 282 283 283 284 284 284 285 285 285 285 287 288 289 289
305 305 304 304 304 305 305 304 303 302 300 298 295 294 293 292 291 291 290 289 289 289 288 288 288 288 288 287 287 287 286 286 286 286 286 285 285 285 285 285 285 285 284 284 284 284 284 283 283 283 283 283 283 283 282 282 282 282 282 282 281 281 280 280 280 280 280 280 280 280 280 281 282 283 283 284 284 285 285 284 284 286 288 289 289
305 305 305 304 304 304 305 304 304 303 301 299 297 295 294 293 292 291 290 289 289 289 288 288 288 288 288 287 287 287 287 286 286 286 286 285 285 285 285 285 285 285 284 284 284 284 284 284 283 283 283 283 283 283 282 282 282 282 282 282 281 281 281 281 281 281 280 280 280 280 280 280 281 281 282 283 284 285 285 284 284 285 287 289 289
305 305 305 305 305 304 304 304 304 303 302 301 299 297 295 293 292 291 290 290 289 289 289 289 288 288 288 287 287 287 287 286 286 286 285 285 285 285 285 285 285 285 284 284 284 284 284 284 284 284 283 283 283 283 283 282 283 283 282 282 282 281 281 281 281 281 280 280 280 280 280 280 280 280 281 282 283 284 285 285 285 285 286 288 289
Wind_Speed
9 7 7 7 7 7 6 4 5 5 5 5 4 5 6 6 9 11 11 12 11 9 9 8 9 11 13 16 18 19 18 16 15 14 14 15 16 18 20 22 24 25 26 28 30 32 35 36 37 36 34 31 27 25 23 22 23 23 23 23 23 22 25 28 34 39 38 35 35 36 36 36 36 35 34 34 33 32 31 30 29 28 27 24 20
8 6 8 7 6 5 5 4 4 5 5 6 5 4 5 6 9 11 12 12 9 7 7 8 11 14 16 19 20 18 17 16 16 16 17 18 20 21 23 24 25 27 29 31 33 35 36 36 35 33 30 27 25 25 26 26 27 28 27 27 26 25 24 27 30 34 36 33 31 32 33 34 36 35 34 35 35 34 33 30 29 28 26 24 22
7 6 8 7 5 5 5 4 3 4 5 6 6 5 5 6 9 10 8 8 7 7 9 11 14 16 19 20 19 17 16 15 16 17 18 20 21 22 24 25 28 30 32 34 35 35 35 34 32 30 29 28 27 27 28 29 30 31 31 30 30 28 26 27 29 32 35 34 31 29 30 30 32 33 33 34 34 33 32 31 29 28 25 24 23
7 6 7 6 5 5 5 3 3 4 5 6 7 5 6 7 7 5 6 7 8 9 11 14 16 18 19 19 17 16 15 15 16 17 19 20 22 24 26 28 30 32 34 35 34 33 32 31 29 29 28 28 29 28 29 30 31 31 32 31 30 29 28 28 29 31 34 36 34 31 29 28 29 29 30 32 32 32 33 32 31 29 26 24 23
7 6 7 7 5 3 3 4 3 3 5 6 7 5 4 4 3 4 8 9 10 11 13 15 17 19 19 17 15 14 14 15 16 18 19 21 23 26 28 31 32 33 33 32 30 29 29 28 28 28 28 28 29 29 29 30 31 31 31 31 30 30 30 30 30 30 31 34 34 31 29 30 30 29 28 29 32 34 34 33 32 30 28 25 24
7 6 8 8 4 1 2 3 3 4 4 4 4 1 1 2 4 7 10 10 11 13 15 16 18 19 17 15 14 13 14 16 17 19 21 23 25 28 30 32 33 31 30 28 28 28 28 28 29 29 30 29 29 29 29 30 30 30 30 30 31 32 33 33 32 31 30 31 31 31 31 31 32 32 29 27 29 33 35 35 34 31 29 28 26
7 7 9 7 3 2 2 1 3 4 3 2 2 3 3 4 7 9 9 11 13 14 16 17 17 16 14 12 13 14 15 18 20 21 23 25 28 30 32 32 30 28 27 27 27 28 28 29 30 30 30 29 28 28 29 30 30 29 30 31 32 32 33 32 32 31 29 29 31 33 33 32 31 33 31 28 28 30 32 34 35 32 30 30 28
7 7 7 5 2 1 0 2 4 6 6 5 4 4 4 7 8 9 10 13 14 14 16 16 15 13 12 12 14 16 18 20 22 23 25 27 30 31 30 28 27 26 27 27 28 28 28 29 30 30 28 27 27 27 28 29 30 30 30 31 31 32 32 31 30 29 28 30 32 33 33 32 31 31 30 27 26 26 27 31 34 34 31 30 28
7 6 6 5 4 4 5 6 8 8 7 6 5 5 6 7 7 10 13 14 14 14 15 14 12 12 12 14 16 18 20 22 23 25 27 29 29 28 26 26 26 28 28 28 28 28 28 30 30 29 27 26 28 27 27 28 28 30 32 33 33 33 33 32 30 29 29 31 33 32 32 33 34 33 32 29 25 22 23 28 34 35 33 31 28
8 7 9 8 7 7 7 9 9 9 7 6 5 5 6 7 10 12 13 13 14 14 13 12 12 13 14 16 18 19 21 22 23 25 27 27 26 25 25 26 27 29 30 30 30 30 29 29 29 28 28 30 32 32 31 32 32 33 34 34 34 35 35 34 31 30 30 31 32 32 32 34 34 33 33 33 30 26 22 24 28 31 31 31 29
10 11 11 10 9 9 9 8 7 6 5 5 4 4 6 9 11 12 13 14 14 13 12 12 13 14 15 17 19 20 21 22 23 25 25 24 24 25 26 27 28 29 31 32 32 31 30 30 30 31 34 37 38 39 39 40 41 40 40 38 35 32 33 34 33 31 29 30 32 31 31 33 34 31 31 33 34 33 28 22 22 26 28 29 30
13 12 12 11 10 8 7 5 4 4 4 2 4 7 10 12 13 14 15 15 13 12 13 13 14 15 16 18 20 21 21 22 23 24 23 23 24 25 26 28 29 31 32 32 32 31 32 33 33 35 37 39 40 42 44 44 45 44 44 43 38 32 29 30 31 32 31 31 32 31 31 32 32 30 29 29 30 32 32 25 19 21 26 28 29
13 13 12 10 8 7 5 5 4 4 2 4 8 10 12 14 14 15 15 13 12 12 13 14 15 16 17 19 20 21 21 22 22 22 22 23 24 25 26 28 30 31 32 32 32 31 32 34 34 36 38 38 39 41 42 43 45 45 44 43 40 36 32 29 28 28 29 30 32 33 32 30 30 30 30 29 27 27 30 28 21 18 22 26 27
14 13 11 8 7 6 6 6 4 3 4 8 11 13 14 14 14 14 13 12 13 13 13 14 15 16 18 19 20 21 21 21 21 21 22 23 23 24 26 28 29 31 32 32 31 31 31 31 31 35 38 38 38 38 39 40 42 43 42 41 40 39 36 33 31 28 26 27 30 33 32 30 31 32 30 28 27 24 26 31 27 20 19 22 24
13 11 9 8 8 7 6 4 2 4 7 11 13 14 14 13 13 14 13 13 14 14 14 14 15 16 17 18 20 20 20 20 21 21 22 23 23 25 27 28 29 31 31 31 31 30 29 28 28 33 37 36 36 35 35 37 38 38 38 38 39 40 38 37 36 34 30 29 29 31 31 30 30 30 28 26 25 23 25 30 30 24 19 19 22
12 10 9 9 8 6 4 2 5 8 11 13 14 14 13 12 13 13 14 13 13 13 13 13 14 15 16 18 18 18 19 20 21 22 22 23 23 25 27 28 29 30 30 31 30 29 29 27 25 30 34 34 33 34 32 33 35 36 37 37 37 38 38 37 37 35 33 31 30 30 31 31 29 27 24 25 25 24 24 26 27 26 21 20 23
12 10 9 8 6 3 2 5 8 11 13 14 13 13 12 11 11 13 14 14 12 11 11 12 14 15 16 17 17 18 19 20 21 21 22 23 25 26 28 28 29 29 29 29 29 29 29 28 25 28 32 32 32 34 33 33 36 37 38 39 39 38 37 37 36 35 31 29 29 30 31 30 27 22 21 24 25 25 24 23 24 23 21 21 24
11 10 8 6 4 1 5 8 10 12 13 13 12 11 10 9 10 13 14 13 11 10 10 11 13 15 15 16 17 17 18 19 20 21 22 23 25 27 28 28 28 28 28 28 28 28 29 28 26 27 30 30 31 33 34 35 37 38 39 41 41 40 37 35 36 36 32 29 28 27 26 24 21 19 20 22 22 21 23 22 19 18 19 20 20
10 9 6 4 2 4 7 10 11 12 12 11 10 9 8 8 10 13 14 12 10 9 9 11 12 14 15 16 16 17 18 19 20 21 21 23 25 26 28 28 27 27 28 28 27 28 29 29 27 26 27 27 29 32 35 37 38 38 38 40 42 42 39 34 35 35 32 29 27 24 21 18 13 12 14 15 14 16 19 19 16 17 18 19 19
10 7 5 2 4 7 9 11 11 11 11 10 8 6 6 7 10 14 13 11 9 9 9 11 12 13 14 15 16 17 18 19 20 21 21 22 24 25 26 26 27 27 27 27 28 28 29 29 28 27 27 27 28 31 33 36 38 37 35 38 41 41 37 34 34 34 31 28 26 23 20 17 12 7 5 6 8 12 14 13 14 17 18 19 22
8 5 3 3 6 8 9 10 11 10 9 8 6 5 6 8 11 13 12 10 9 9 10 11 12 12 14 15 16 17 18 19 20 21 21 22 23 24 25 25 27 27 26 26 27 27 28 29 28 28 27 27 28 31 33 36 37 36 34 35 37 35 34 34 36 37 36 33 31 27 21 17 14 8 2 1 4 6 7 7 9 12 15 19 24
6 3 2 4 6 8 9 9 9 8 7 5 4 5 6 8 12 13 11 10 10 9 10 11 11 12 14 15 16 17 18 19 20 21 21 21 21 22 23 24 25 25 26 26 27 26 26 27 28 28 26 26 28 31 34 36 37 36 33 33 33 32 33 33 34 37 40 39 39 36 29 24 23 19 12 7 3 1 1 2 4 5 7 11 13
4 3 2 4 6 7 8 7 6 5 5 4 4 6 7 9 11 12 10 10 9 9 10 11 11 13 15 16 17 18 18 19 20 21 21 20 20 21 22 22 23 23 25 26 27 26 25 26 27 27 25 25 27 31 34 36 37 36 34 33 32 31 32 33 34 37 39 39 41 40 37 35 34 30 25 19 13 10 9 6 4 4 3 3 3
4 3 3 4 6 6 6 5 4 3 3 3 5 6 8 10 11 11 10 9 9 9 11 12 12 14 16 17 17 18 18 18 19 19 19 19 20 21 21 21 22 22 24 25 25 25 25 25 26 26 25 24 25 27 30 33 34 34 35 34 33 31 31 33 35 37 37 37 39 40 39 39 38 35 31 25 19 17 16 13 9 8 6 4 3
4 3 3 4 5 3 3 2 2 2 2 4 6 7 8 10 10 9 8 8 8 9 11 13 14 16 17 18 18 17 17 17 17 17 18 19 20 21 21 21 22 23 23 24 24 24 23 24 24 25 26 26 25 25 27 29 30 32 34 34 35 35 35 34 35 36 38 38 38 38 38 38 38 38 35 27 21 19 18 16 14 12 9 7 5
4 3 3 3 2 2 3 2 3 2 3 4 6 8 9 9 9 8 7 7 7 9 12 13 15 17 19 19 18 17 16 16 16 17 18 19 20 21 21 21 22 23 23 24 24 24 24 24 25 25 26 26 27 28 28 27 27 28 31 33 35 36 37 37 36 36 38 39 38 37 36 36 35 35 32 29 26 25 22 18 15 13 11 8 6
2 1 2 2 1 3 3 3 3 3 3 5 6 8 8 8 8 7 6 7 8 9 12 14 16 18 20 19 17 16 15 16 16 17 18 20 21 22 22 22 23 24 24 24 25 25 25 25 25 25 25 25 26 27 28 28 28 28 29 32 33 34 35 36 36 35 36 37 37 36 34 33 33 33 32 31 32 30 26 22 18 15 12 8 6
1 1 1 2 2 4 4 3 3 4 4 5 7 7 7 7 7 6 6 8 9 10 12 14 16 18 20 19 17 15 16 17 19 20 20 20 21 22 23 23 23 24 25 25 25 25 26 26 27 28 29 29 29 29 30 30 31 32 32 32 32 32 32 33 33 32 33 34 35 33 32 33 33 34 33 33 32 31 29 26 22 18 14 11 8
2 1 2 3 3 4 4 4 5 6 6 7 7 6 6 6 6 5 6 8 9 10 12 14 16 18 19 19 17 16 17 19 20 21 21 21 21 22 23 23 23 24 24 24 24 25 26 28 29 31 33 35 35 35 35 33 32 33 33 33 33 32 32 33 34 33 32 32 33 33 33 33 34 34 34 33 32 31 30 28 25 22 19 15 13
2 2 3 3 4 5 5 6 7 7 8 8 7 6 5 5 5 5 6 8 9 9 11 14 16 18 20 20 18 17 18 19 20 21 21 21 20 21 22 22 22 23 23 24 25 26 28 29 30 31 33 36 37 38 39 37 35 34 34 34 33 33 33 34 35 34 31 31 31 32 31 32 33 34 36 35 33 31 30 29 27 26 23 20 18
2 2 3 3 4 5 5 6 7 8 8 8 7 6 5 5 4 3 4 7 8 9 10 13 15 17 19 20 18 16 16 18 19 20 21 21 21 21 22 22 23 23 24 24 26 28 29 29 30 30 31 33 35 37 38 38 37 35 34 34 33 32 32 32 33 34 33 31 30 30 30 30 31 33 35 36 34 32 31 31 30 28 26 24 22
2 2 2 3 4 4 5 6 7 7 8 8 7 6 5 5 4 2 3 5 7 8 8 11 13 15 18 19 17 16 15 16 18 19 20 20 21 21 22 23 23 23 24 25 26 28 28 28 28 29 30 32 34 35 35 36 37 36 35 34 34 33 32 31 30 31 31 32 31 30 29 29 29 31 32 34 34 34 33 32 31 30 28 26 24
3 2 2 3 3 4 6 7 7 8 7 7 7 6 5 5 4 2 2 3 5 6 6 9 11 13 15 17 16 15 15 16 17 18 19 20 20 21 21 22 23 24 25 26 27 28 27 26 27 28 30 31 32 33 34 34 35 35 34 33 33 32 31 29 27 27 29 30 30 30 29 29 28 29 30 31 34 35 34 33 32 31 29 28 27
3 1 1 2 3 5 6 7 8 8 7 7 7 6 5 4 4 2 1 2 4 5 5 7 9 10 13 14 15 14 14 15 16 17 18 19 20 20 21 21 22 23 25 26 26 27 27 27 26 27 29 30 31 32 33 33 32 33 33 33 31 30 30 29 28 27 28 29 29 29 29 29 29 29 30 32 34 35 35 34 33 31 29 29 28
3 2 2 2 3 5 6 8 8 8 7 8 7 5 5 4 3 3 2 2 3 4 4 5 7 9 11 13 13 13 13 15 16 17 18 19 19 20 20 21 22 24 24 25 26 26 26 26 26 26 28 29 30 31 32 32 32 32 32 32 31 30 29 29 29 28 28 28 28 28 28 28 29 29 30 31 33 35 35 34 34 32 30 30 29
2 2 2 2 3 5 6 7 7 7 7 7 6 5 4 4 4 4 3 2 3 4 4 4 6 7 10 11 12 12 13 14 15 16 17 18 19 20 21 23 24 24 24 24 25 25 25 25 26 26 26 27 29 31 31 31 31 31 31 31 31 30 29 29 29 29 27 26 26 26 26 26 27 27 28 29 30 33 34 33 33 32 31 30 29
3 2 2 2 3 5 6 7 7 7 7 8 7 5 5 5 5 5 4 4 4 4 4 4 5 6 8 9 10 11 12 14 15 15 16 18 19 20 22 23 23 23 23 24 24 24 24 24 25 25 25 26 28 29 30 31 31 30 30 29 29 30 29 28 27 27 27 27 26 25 25 25 25 25 26 27 28 30 33 33 33 32 31 30 28
4 3 2 2 3 4 6 7 7 7 7 8 8 6 6 6 6 5 5 5 5 4 4 4 4 5 6 8 9 11 12 13 13 14 15 17 18 19 21 21 22 22 22 23 24 23 23 24 24 24 24 25 26 28 29 30 30 30 30 29 28 28 28 28 27 26 26 27 27 26 25 25 25 24 25 27 28 30 32 33 33 33 33 31 29
6 4 3 3 3 5 6 7 7 7 7 8 8 7 6 6 6 5 5 5 5 5 5 4 4 5 6 7 8 10 11 12 13 13 15 16 17 19 19 20 21 21 22 22 23 23 23 23 24 23 23 24 25 27 28 29 29 29 30 30 29 28 28 28 28 28 27 26 28 27 26 25 26 25 26 27 28 30 32 33 33 34 33 32 30
7 5 4 4 4 5 6 6 6 7 7 7 7 7 7 7 6 6 6 5 5 5 4 4 5 5 6 7 8 10 11 12 13 13 14 15 16 17 18 19 20 21 21 22 22 22 22 23 23 23 23 24 25 26 27 28 28 28 29 29 29 29 28 28 29 29 28 27 27 27 26 25 25 25 25 26 28 29 31 32 33 33 33 32 30
8 6 5 5 5 6 6 6 7 7 7 8 8 8 8 7 7 6 6 6 5 4 3 4 6 6 6 7 9 10 11 12 12 12 13 15 16 17 18 19 19 20 20 21 21 21 22 22 23 23 23 24 25 27 27 27 27 28 28 28 28 29 28 28 28 28 29 28 28 26 25 24 25 25 25 25 27 28 29 31 32 33 33 32 30
9 7 6 6 6 7 7 7 7 8 8 8 9 9 8 8 8 8 7 6 5 4 4 5 6 6 6 7 8 10 11 12 12 12 13 14 15 16 17 18 18 19 20 20 20 21 21 22 22 22 23 24 26 27 28 27 27 27 27 28 28 28 28 28 28 28 28 29 29 27 24 22 24 25 24 24 26 28 28 30 31 32 33 32 31
9 8 7 7 7 7 7 8 8 8 9 9 9 9 9 9 9 9 8 6 5 5 5 6 6 6 6 6 7 9 10 11 11 11 12 13 14 15 15 16 17 18 18 18 19 20 20 21 21 22 23 24 25 27 28 28 27 27 26 27 27 28 28 28 28 28 28 28 29 28 25 22 22 24 24 24 26 27 28 28 29 31 32 32 30
12 10 9 9 9 8 8 9 8 8 8 9 9 10 10 10 10 10 8 7 6 7 6 6 7 6 6 6 7 8 9 10 10 10 11 12 13 13 14 15 16 17 17 17 18 19 19 19 20 21 22 23 24 25 27 27 27 26 26 26 27 27 27 28 29 29 29 29 29 29 26 23 22 23 24 24 25 26 26 27 28 30 31 31 29
15 13 11 11 10 10 9 9 8 8 9 10 11 11 11 11 10 10 9 8 8 8 8 8 7 7 6 6 7 7 8 9 9 10 10 11 12 13 13 14 15 16 16 16 17 18 18 18 19 20 21 22 24 25 26 26 26 26 25 26 26 27 27 28 28 28 28 28 29 28 27 23 22 23 24 24 24 25 25 25 27 29 30 29 29
18 16 14 12 11 10 10 9 9 9 10 11 11 11 11 11 11 10 10 9 9 9 10 9 8 7 6 6 7 7 8 8 9 9 10 11 12 12 13 14 14 15 15 16 16 17 17 17 18 19 21 22 23 24 25 26 26 25 25 25 25 26 27 28 27 27 27 27 28 28 26 23 22 22 23 23 22 22 22 23 25 27 28 28 27
21 19 17 15 12 11 11 11 10 10 11 11 11 11 11 11 11 10 10 10 10 11 11 10 9 7 7 7 7 7 7 7 8 8 9 10 11 12 12 13 13 14 15 15 16 16 16 16 17 18 20 21 22 23 24 25 26 25 24 24 24 25 26 27 27 26 26 26 26 26 25 23 22 22 23 23 22 21 21 21 23 24 26 27 27
23 22 20 18 15 13 12 12 11 11 11 11 11 12 12 12 11 11 11 11 12 13 13 11 9 8 7 7 7 7 7 7 8 8 9 10 11 11 12 12 13 13 14 15 15 16 15 15 16 17 18 20 21 22 24 25 26 25 24 24 24 25 26 26 26 26 25 25 25 24 24 23 22 22 22 22 21 21 21 21 21 22 24 26 25
26 25 23 21 19 16 13 12 12 11 11 12 13 13 14 13 13 12 13 13 14 15 14 12 10 9 8 8 8 7 7 7 8 8 8 9 10 11 11 12 12 13 13 14 15 15 15 15 15 16 18 19 20 21 23 24 25 25 24 24 24 24 24 24 24 24 24 24 23 23 23 22 22 21 21 21 20 21 20 20 19 20 22 23 24
29 27 25 24 21 18 15 14 13 13 13 13 14 15 15 15 14 14 14 15 16 16 15 13 11 10 9 9 8 7 7 7 8 8 8 9 9 10 11 11 12 12 12 13 14 14 14 14 15 16 17 18 19 20 21 23 24 24 25 25 24 23 23 23 23 23 23 23 22 22 22 22 22 22 21 21 21 21 21 19 18 18 19 21 23
31 29 28 26 24 21 18 17 17 16 15 15 15 15 16 15 15 14 15 16 16 16 15 13 11 11 10 9 9 8 7 7 8 8 8 9 9 10 10 11 11 12 12 12 13 13 13 14 14 15 16 17 19 19 20 21 22 23 24 24 23 22 22 23 23 23 23 22 21 21 21 21 21 22 22 22 22 23 21 20 19 18 17 19 21
Wind_Direction
238 239 229 231 240 248 262 282 298 312 342 354 349 360 6 15 22 21 16 7 359 354 354 357 354 345 338 335 333 331 329 326 324 323 324 327 329 329 328 326 324 324 324 323 322 322 322 321 321 322 322 321 318 316 315 316 315 315 314 315 316 316 314 311 305 301 301 300 298 295 294 293 290 287 287 286 286 287 288 290 292 291 295 298 290
229 227 218 221 235 245 256 279 299 305 330 348 345 343 347 4 18 16 7 359 348 340 342 338 333 331 333 335 334 330 325 322 322 323 325 328 329 330 329 329 328 328 327 326 324 324 324 325 326 326 326 323 318 315 316 316 315 316 316 315 312 310 310 310 310 308 307 307 305 301 299 295 290 286 285 284 285 285 284 286 288 288 289 291 289
225 219 217 222 233 237 247 279 314 305 316 341 342 330 333 352 6 6 358 344 329 324 325 324 325 328 331 333 331 326 323 324 326 328 330 332 333 333 333 333 333 332 331 330 331 331 331 331 331 329 327 323 319 317 316 316 316 317 317 317 314 312 310 307 307 308 308 308 308 307 306 300 292 287 284 282 282 281 281 282 285 285 284 284 287
223 220 221 223 229 230 241 284 322 300 301 333 345 342 345 348 350 347 336 326 318 315 317 319 324 328 331 332 330 327 327 328 330 331 333 335 336 335 335 334 334 335 336 336 336 336 335 333 332 329 326 323 321 321 320 319 319 319 319 320 319 316 313 309 307 307 307 307 307 306 306 303 296 290 286 281 277 276 279 281 282 282 281 279 281
223 220 220 218 223 228 250 283 307 300 304 341 359 1 347 326 307 311 319 319 315 315 319 324 329 332 334 334 332 330 331 331 331 332 334 335 335 335 335 336 337 338 339 339 338 337 337 337 336 334 331 327 325 325 324 323 322 322 323 322 319 315 313 311 308 306 305 304 305 304 302 299 295 292 288 281 278 276 276 277 278 278 277 274 273
219 218 218 218 228 324 316 284 303 313 315 346 1 342 232 254 290 308 313 315 317 321 327 332 335 337 337 335 332 332 334 334 334 334 334 334 335 336 337 338 339 340 340 341 341 341 341 341 340 339 335 331 328 326 325 325 325 326 325 322 318 316 314 312 310 309 307 304 303 302 301 299 295 292 290 285 281 278 275 275 275 274 273 269 266
209 216 219 220 247 356 6 317 297 283 253 233 239 220 226 277 300 307 311 316 324 330 335 339 339 338 337 334 332 335 335 334 333 334 335 337 339 340 340 340 341 342 344 346 346 345 345 344 343 341 338 335 332 331 330 329 328 327 324 320 319 320 318 316 314 312 309 306 304 304 303 301 295 290 289 286 280 275 273 272 271 270 268 263 261
200 211 212 211 235 314 189 211 235 231 213 207 219 237 276 294 301 310 318 324 332 340 342 341 340 338 336 335 336 336 334 332 334 337 341 342 341 341 342 343 345 348 350 351 350 349 348 347 346 345 345 345 343 340 337 334 331 329 324 322 321 321 319 317 315 312 309 306 305 305 305 303 297 290 286 284 282 280 276 272 269 268 264 258 258
203 208 198 196 204 198 186 192 204 206 204 211 233 267 291 301 309 319 326 333 342 346 343 342 340 338 337 336 336 335 333 336 342 346 345 344 343 344 347 350 353 354 354 354 353 352 351 350 351 352 354 354 350 345 340 338 334 328 323 320 318 316 314 312 311 309 308 306 305 305 304 303 300 296 290 284 286 292 285 271 267 265 261 256 257
194 181 179 185 187 177 171 176 184 192 206 227 250 276 294 308 320 327 334 341 346 345 342 341 339 337 337 335 335 335 337 343 348 347 345 345 347 352 356 358 359 358 357 356 355 354 353 352 355 360 360 356 352 347 342 340 337 331 327 322 317 313 309 306 304 305 305 304 304 304 304 303 302 301 295 286 282 288 292 278 265 262 259 255 252
173 167 171 174 175 170 164 168 181 201 223 239 264 296 313 323 331 336 340 344 346 345 342 339 337 336 335 335 337 339 341 345 347 346 346 350 355 0 3 3 2 0 359 358 356 355 354 354 358 2 0 355 351 347 343 341 339 338 336 333 327 318 310 304 300 300 301 300 300 300 300 302 304 302 296 288 282 283 292 294 275 261 261 258 252
165 162 164 166 173 177 179 192 216 232 237 265 314 326 330 334 338 340 342 346 346 342 340 338 337 336 336 337 339 340 343 347 349 349 352 358 4 7 7 5 4 3 2 359 358 356 356 357 359 360 357 352 348 345 342 340 339 339 338 337 334 328 320 311 302 297 297 297 296 294 295 299 304 301 293 289 288 284 285 291 286 267 262 261 254
162 160 163 169 182 193 208 230 241 244 271 327 333 333 335 337 341 345 346 345 341 339 340 339 337 337 338 339 340 342 346 350 353 355 359 6 10 10 9 8 7 6 4 2 1 360 359 359 358 356 354 352 349 345 340 338 337 337 335 334 333 332 328 323 311 300 294 292 289 289 293 298 299 298 292 286 285 284 280 281 285 278 271 265 255
163 164 168 179 193 204 221 232 238 267 322 339 337 336 338 341 348 353 351 344 341 343 344 339 337 337 337 340 344 346 351 355 357 1 6 11 13 10 10 10 8 7 7 5 4 2 2 2 356 353 354 355 353 348 341 337 336 334 333 332 332 333 333 332 326 315 302 293 289 290 295 296 292 292 294 287 279 278 277 274 274 278 279 271 259
169 174 180 187 195 206 219 230 267 327 339 340 336 337 342 348 357 359 353 347 342 342 340 336 336 337 339 344 349 351 355 359 0 5 10 12 12 9 9 9 8 8 8 7 6 4 5 5 356 351 355 358 357 353 346 341 339 338 336 335 334 335 335 333 327 320 311 302 297 295 295 294 290 288 291 288 277 268 269 269 269 275 279 267 258
179 184 190 192 195 202 222 284 335 340 339 336 335 341 348 354 359 358 352 344 337 336 337 336 340 344 346 350 354 356 360 2 3 6 9 11 9 7 8 7 7 7 6 6 7 5 5 7 356 350 355 358 359 359 356 352 352 350 346 345 342 339 337 332 326 323 319 312 306 301 297 294 290 284 281 282 275 267 267 267 264 269 276 265 251
182 187 192 192 193 202 279 319 330 335 335 334 338 347 354 355 354 352 349 344 339 341 343 343 347 349 352 357 1 1 1 3 5 6 7 7 4 3 5 5 4 4 4 5 7 5 7 8 359 351 355 360 2 3 3 2 2 1 358 356 354 350 345 338 332 332 332 327 317 308 301 297 292 282 274 275 273 267 266 265 257 260 272 265 249
185 191 197 196 197 276 312 319 329 333 333 335 342 351 356 353 348 347 349 349 350 350 349 349 351 353 357 4 7 4 4 5 6 5 5 3 360 360 1 2 2 2 2 4 5 6 9 10 5 358 358 3 6 8 9 8 7 6 6 4 3 2 358 350 342 340 338 335 329 319 310 305 297 285 276 274 270 258 252 252 248 252 267 265 252
196 197 200 206 267 316 319 326 334 335 334 339 348 355 354 350 346 347 351 358 359 353 352 356 359 360 3 7 9 7 7 7 4 3 3 359 357 358 359 359 0 1 0 1 2 4 7 10 10 7 5 7 11 13 15 14 11 10 12 10 9 10 11 6 359 352 344 339 338 335 331 325 310 290 280 273 260 240 234 236 233 237 254 262 254
194 192 199 240 305 320 326 332 336 336 340 349 356 355 348 345 347 349 356 6 7 1 3 8 7 4 6 9 10 8 7 7 5 3 1 358 358 359 358 357 1 2 1 360 0 1 4 8 12 13 11 12 15 18 19 19 15 14 17 17 15 15 18 20 16 13 8 1 355 352 350 348 342 328 297 257 235 224 222 223 222 224 235 245 244
191 196 222 289 312 320 327 332 335 340 348 355 356 346 339 344 349 351 359 10 13 11 14 15 10 7 9 13 13 10 7 7 6 5 3 1 0 359 359 1 3 3 1 2 2 2 3 7 12 14 13 14 18 21 22 22 19 18 21 23 21 22 26 26 26 28 28 24 19 15 11 6 4 2 6 187 214 220 214 210 213 218 226 232 237
198 220 275 307 313 320 327 331 336 344 351 352 345 336 340 347 350 352 1 13 17 18 20 19 17 14 15 15 14 12 10 7 7 7 5 4 2 1 3 6 5 2 2 5 5 5 6 7 11 14 13 15 21 24 24 23 21 21 23 25 27 31 33 32 32 34 34 31 30 30 28 28 30 35 45 52 43 53 130 156 188 203 220 229 234
209 245 295 318 323 328 329 331 338 346 348 341 331 335 344 348 349 355 6 14 18 24 26 25 23 21 19 16 14 13 12 9 8 7 5 5 6 8 8 7 4 3 6 9 9 9 8 9 11 13 14 17 23 26 26 24 23 22 23 23 25 30 34 35 35 36 35 35 36 35 34 34 34 37 45 52 56 65 74 83 111 136 158 192 212
234 276 319 336 336 329 323 327 335 340 339 328 328 335 341 344 350 1 11 15 21 29 31 29 26 24 20 16 14 13 14 11 8 6 6 9 13 14 12 7 3 5 10 11 12 12 11 11 11 13 16 20 24 27 27 25 23 23 23 23 23 25 30 33 34 35 36 37 36 34 33 33 31 31 38 48 57 65 72 80 90 97 102 107 115
256 286 318 336 333 311 293 299 303 304 311 316 324 333 337 342 353 7 15 20 28 33 31 29 28 25 20 16 16 17 16 12 8 7 10 14 16 14 9 5 4 8 11 13 13 14 14 13 12 13 17 22 24 26 27 25 21 20 20 22 24 26 28 31 33 34 34 33 32 31 32 32 31 31 36 42 47 50 54 61 68 72 72 66 63
250 274 311 329 310 252 247 251 255 275 298 308 320 329 331 339 355 11 23 34 41 38 33 30 27 24 20 20 22 21 16 12 11 11 11 12 13 10 6 5 7 9 12 14 15 15 15 15 15 15 17 22 24 24 24 24 21 18 16 17 20 24 26 29 31 34 33 30 29 31 33 35 35 36 39 41 41 39 41 45 52 58 59 56 57
225 268 325 326 248 227 239 248 252 274 294 303 313 321 326 336 352 10 30 44 49 44 37 31 26 24 23 24 25 22 18 18 18 16 13 12 11 9 8 8 8 8 11 14 15 15 16 17 18 18 18 23 26 26 25 24 24 22 19 17 17 19 23 26 28 31 32 31 29 31 35 37 39 39 40 40 39 38 38 41 46 50 52 54 64
205 291 294 266 233 229 238 250 263 279 287 291 301 309 318 332 345 7 31 41 46 44 37 30 26 24 24 27 27 23 22 24 23 21 18 16 13 10 9 9 8 8 10 11 12 14 15 15 17 19 20 22 25 26 25 25 25 25 24 22 20 19 20 21 22 24 28 30 30 32 35 37 40 41 40 40 41 39 37 39 42 43 46 49 47
188 234 236 227 226 231 242 255 269 282 286 285 291 298 308 324 342 5 25 35 39 38 32 28 24 23 24 26 25 22 23 25 24 21 19 18 15 11 9 10 9 7 8 7 7 10 13 15 16 19 21 22 23 24 23 23 23 25 25 24 23 22 21 22 22 22 23 26 29 30 32 34 38 41 39 37 39 40 38 38 39 38 39 41 40
188 225 230 224 223 231 247 257 264 279 286 285 286 291 300 319 341 0 17 27 31 30 28 25 21 20 22 22 20 19 21 22 20 17 15 16 16 13 11 11 9 8 7 5 6 9 13 15 17 20 22 23 23 22 22 21 21 23 24 24 23 23 23 24 24 22 21 22 25 27 29 30 34 38 36 32 32 37 38 36 35 35 34 33 30
217 238 233 228 226 234 248 254 260 273 280 278 278 286 297 309 327 348 9 19 21 22 24 23 19 17 18 19 14 11 13 17 16 14 12 13 14 13 12 12 12 10 8 7 9 11 12 13 15 18 21 22 21 21 21 20 19 20 22 23 24 24 23 24 24 22 21 21 21 22 26 28 30 33 34 29 26 30 33 32 31 31 31 29 27
252 267 244 234 236 242 249 254 261 268 269 265 266 276 287 289 292 314 356 10 13 13 17 20 17 12 13 14 7 0 5 12 12 10 9 10 11 12 11 10 12 12 10 10 13 13 11 11 13 15 17 20 20 19 19 19 19 19 20 22 24 25 25 25 25 24 24 24 21 20 23 27 29 31 33 31 26 25 27 27 26 25 24 25 25
264 283 239 226 240 249 250 255 262 265 262 257 257 263 268 266 266 283 337 358 2 4 10 17 15 8 8 8 1 354 359 7 8 6 6 6 8 10 9 8 10 11 11 12 15 14 11 12 13 13 15 18 18 17 17 18 18 18 19 21 22 23 25 25 25 26 28 28 26 22 21 25 28 30 33 33 29 24 23 24 22 20 19 20 21
252 249 184 199 236 247 250 256 263 261 253 247 247 248 244 242 253 273 303 342 349 350 1 14 11 3 1 2 357 352 356 2 4 3 2 3 6 7 6 7 10 12 12 13 14 12 10 11 14 14 14 16 17 16 16 16 16 17 18 19 20 21 22 23 24 25 27 29 28 25 22 23 26 28 30 32 30 24 22 22 20 18 17 16 17
231 179 159 181 225 238 245 253 258 255 247 241 241 239 232 234 249 260 263 301 327 330 346 5 2 355 355 356 353 351 353 358 1 1 359 1 4 4 3 7 11 13 13 13 12 10 8 9 12 13 12 13 15 15 15 14 15 16 16 16 18 19 19 21 22 22 22 24 26 25 24 24 25 25 26 28 28 23 20 19 18 17 16 15 15
213 175 162 181 214 229 238 246 251 250 244 238 235 233 235 242 246 245 247 275 300 309 327 349 351 348 349 350 350 351 352 355 359 1 359 1 2 2 4 8 11 12 13 12 10 9 6 5 8 12 12 11 12 14 14 13 14 15 15 14 16 18 18 19 19 19 18 19 21 22 22 23 25 23 22 24 26 23 20 17 16 15 16 15 14
211 199 190 185 207 226 235 242 245 242 233 226 224 229 237 241 241 242 250 267 283 295 311 331 338 338 339 342 347 353 354 354 356 0 2 2 2 3 6 9 9 10 12 11 8 7 5 3 5 9 12 11 10 11 12 13 13 14 15 14 14 17 18 18 17 15 14 15 16 16 19 23 24 22 21 23 25 24 21 18 15 14 15 16 14
208 209 209 209 214 221 229 236 237 229 221 217 218 225 232 234 236 244 252 261 276 290 302 317 325 325 329 339 348 353 355 354 356 0 3 3 3 5 7 8 7 9 11 10 7 6 6 4 4 8 10 9 9 9 10 11 12 12 14 14 14 15 16 18 17 15 14 14 13 12 15 21 22 22 23 24 25 24 21 17 15 14 14 15 14
204 204 211 224 223 216 222 232 231 220 215 214 215 222 229 228 231 238 241 250 270 287 295 305 310 314 328 343 348 351 354 356 359 2 4 3 4 6 7 7 7 8 10 10 7 7 7 6 7 9 9 8 8 9 9 10 10 11 12 12 13 13 14 16 17 16 14 14 13 11 13 18 21 23 25 26 26 24 21 18 16 15 13 13 12
203 203 212 226 228 218 219 229 232 225 220 216 217 224 226 224 228 233 232 237 254 273 284 293 299 311 331 343 345 348 353 356 358 2 3 2 3 5 6 7 6 7 9 9 7 7 8 7 8 11 10 8 8 10 9 8 9 10 11 11 11 13 13 15 16 16 15 15 15 13 13 16 20 22 24 26 26 25 22 20 18 16 15 14 14
206 210 218 226 230 223 218 223 230 230 226 222 222 225 225 225 228 230 225 225 239 262 286 295 299 311 329 338 342 345 347 350 355 360 360 0 2 4 5 6 5 5 7 7 6 7 8 7 8 11 12 9 8 9 9 9 9 9 9 10 10 12 14 14 14 15 15 16 17 15 14 16 20 21 21 23 25 25 22 22 22 20 18 18 17
209 217 225 229 232 228 220 218 223 227 227 224 224 226 229 231 232 230 224 220 231 259 286 292 295 305 320 331 336 338 339 343 352 357 357 358 1 2 3 4 4 4 6 6 5 7 8 7 8 11 12 11 9 8 7 8 9 8 8 8 9 10 13 14 14 13 14 16 17 16 14 14 17 18 18 20 22 22 21 21 23 23 20 19 19
209 218 231 238 238 232 224 220 221 223 224 224 224 229 233 236 235 232 227 224 234 253 270 281 288 298 310 322 328 329 331 338 349 355 354 354 356 359 1 3 2 3 5 5 5 7 9 9 9 11 12 11 10 8 6 6 7 7 7 7 7 9 12 13 13 13 13 14 16 16 14 11 10 12 15 17 19 19 18 19 23 24 22 20 21
210 216 227 234 234 229 226 225 222 219 220 224 229 234 237 239 238 234 229 228 238 250 261 274 283 291 301 311 317 319 325 335 345 350 348 349 351 355 359 1 1 2 4 4 5 8 10 9 9 12 13 13 12 10 7 5 5 6 7 7 7 8 11 13 13 12 11 12 13 13 12 8 6 7 11 15 16 16 15 16 20 24 23 21 21
212 215 222 228 229 225 223 223 221 221 223 228 232 235 237 239 238 232 227 230 241 250 259 270 278 285 293 302 307 311 319 331 341 343 341 343 348 351 355 358 358 359 1 3 6 9 11 10 9 12 14 13 12 11 8 6 5 6 7 7 7 8 10 12 11 10 10 10 10 10 9 6 2 4 7 10 11 11 11 12 17 22 23 22 21
215 216 219 224 227 226 224 222 222 225 229 231 233 235 237 238 235 229 227 233 243 252 258 263 270 279 288 294 298 304 314 326 335 337 337 339 343 347 351 354 354 356 359 2 4 8 11 9 8 11 13 13 12 11 9 7 7 6 6 7 8 9 10 11 10 9 10 10 8 7 5 2 359 2 5 5 5 4 6 10 15 19 23 25 23
218 219 220 221 223 225 225 224 224 228 232 234 236 237 238 239 236 233 234 239 247 252 254 257 261 272 284 290 294 299 309 320 328 332 333 335 337 341 347 350 350 352 356 359 1 7 11 9 7 10 13 12 11 9 8 8 8 7 6 7 9 9 10 10 8 8 10 10 7 5 3 359 357 0 2 1 0 359 0 6 14 19 22 26 27
220 221 222 222 222 222 225 227 229 232 236 238 238 239 240 241 240 238 238 241 247 251 252 253 257 267 278 286 290 294 301 312 322 327 328 330 332 335 341 344 344 347 353 355 358 4 10 9 7 9 12 12 10 9 7 7 7 6 5 8 10 10 10 8 6 6 8 9 6 4 3 360 358 359 359 359 359 359 360 6 15 20 22 25 27
223 223 224 225 225 224 227 232 234 237 241 241 240 241 242 244 244 241 239 241 245 249 251 252 256 264 274 280 286 290 296 306 316 322 324 325 326 331 336 338 338 342 348 351 353 0 7 7 6 8 11 12 11 9 7 6 6 5 6 9 10 9 8 8 6 6 8 8 5 4 4 2 360 358 357 357 358 359 3 11 20 22 22 23 25
226 226 227 229 229 229 230 232 236 239 241 241 241 242 242 242 243 242 241 242 244 247 248 250 253 260 269 276 281 285 292 300 309 316 319 320 322 328 332 332 332 338 345 347 349 355 2 4 5 6 9 11 11 10 8 6 4 4 7 8 8 7 7 7 6 7 8 7 5 4 5 5 2 360 358 358 358 1 7 16 23 24 24 25 27
229 229 230 230 231 231 231 233 236 238 239 240 243 243 242 242 243 243 242 243 245 245 246 248 250 256 265 272 277 280 285 293 302 308 313 316 319 324 327 326 328 334 340 342 345 350 356 1 4 5 6 9 10 10 9 7 4 5 7 7 5 4 6 6 6 8 9 6 4 5 6 6 5 3 0 359 1 4 10 17 21 24 30 33 33